OpenBCM V1.08-5-g2f4a (Linux)

Packet Radio Mailbox

IZ3LSV

[San Dona' di P. JN]

 Login: GUEST





  
WG3K   > KEPS     11.08.24 17:45l 399 Lines 19163 Bytes #48 (0) @ AMSAT
BID : ORB24224.1
Read: GUEST
Subj: 2Line Orbital Elements 24224.AMSAT
Path: IZ3LSV<I0OJJ<GB7CIP<VK2RZ<W0ARP<K5DAT<KA1VSC<WG3K
Sent: 240811/1643Z 7086@WG3K.#SMD.MD.USA.NOAM LinBPQ6.0.24


QST de W1STR

AMSAT Orbital Elements for Amateur Satellites in TLE Format
From Orbital Analysis Office
New England Sci-Tech STEM Education Center
Natick, MA August 11, 2024
To all radio amateurs


These element sets describe the orbits of various satellites 
in use by the amateur radio community. For details see:
www.amsat.org/keplerian-elements-formats/

A daily update of element sets is available at:
www.amsat.org/tle/daily-bulletin.txt
or without bulletin text:
www.amsat.org/tle/dailytle.txt


AO-07
1 07530U 74089B   24223.58132503 -.00000036  00000-0  67165-4 0  9992
2 07530 101.9814 218.7437 0012175 342.4994 127.1959 12.53677747275854
UO-11
1 14781U 84021B   24223.86935561  .00005020  00000-0  56568-3 0  9992
2 14781  97.7091 191.5209 0006362 252.6885 107.3636 14.87029127177615
AO-27
1 22825U 93061C   24223.60458108  .00000426  00000-0  18082-3 0  9997
2 22825  98.7846 276.9380 0007305 281.0353  79.0008 14.30540195610390
FO-29
1 24278U 96046B   24223.39099160  .00000114  00000-0  15017-3 0  9991
2 24278  98.5793 150.9374 0350971  47.9694 315.0761 13.53197245381767
NOAA-15
1 25338U 98030A   24223.80192355  .00000661  00000-0  29127-3 0  9994
2 25338  98.5668 249.7841 0010767 159.2110 200.9510 14.26655106365221
GO-32
1 25397U 98043D   24223.47864515  .00000389  00000-0  18934-3 0  9991
2 25397  98.9260 191.0243 0001786  41.1384 318.9928 14.24085191355148
ISS
1 25544U 98067A   24223.83784911  .00020194  00000-0  36238-3 0  9995
2 25544  51.6408  44.5872 0005770 185.1957 306.5656 15.49872002467029
NO-44
1 26931U 01043C   24223.15288961  .00000763  00000-0  31926-3 0  9992
2 26931  67.0497 192.1280 0007807 272.9403  87.0805 14.31303233193675
SO-50
1 27607U 02058C   24223.62656729  .00004381  00000-0  60224-3 0  9996
2 27607  64.5554  54.1787 0025469  82.9646 277.4353 14.79305264164379
CO-55
1 27844U 03031E   24223.57169388  .00001163  00000-0  53192-3 0  9996
2 27844  98.6781 229.8468 0009565 354.9241   5.1839 14.23360975 95525
CO-57
1 27848U 03031J   24223.45713768  .00000928  00000-0  43292-3 0  9992
2 27848  98.6814 229.9478 0009781  11.3868 348.7529 14.22787700 95257
RS-22
1 27939U 03042A   24223.88587624  .00004902  00000-0  82051-3 0  9994
2 27939  98.2979  20.9782 0010924 245.2088 272.5785 14.70240568116314
NOAA-18
1 28654U 05018A   24223.79342571  .00000537  00000-0  30976-3 0  9993
2 28654  98.8724 300.3018 0013133 267.8328  92.1341 14.13276932990979
CO-58
1 28895U 05043F   24223.36415002  .00005101  00000-0  89521-3 0  9993
2 28895  98.2089 359.2999 0015578 182.5626 177.5501 14.68078436  2401
CO-65
1 32785U 08021C   24223.88909472  .00012887  00000-0  11063-2 0  9995
2 32785  97.7580 188.7987 0012070 137.4798 222.7361 14.97547268883735
AAUSAT2
1 32788U 08021F   24223.45996958  .00040280  00000-0  18342-2 0  9991
2 32788  97.5970 203.9758 0004265  29.0223 331.1248 15.20560193886563
CO-66
1 32791U 08021J   24223.47205789  .00020281  00000-0  14215-2 0  9996
2 32791  97.6938 194.3949 0007423 116.9856 243.2129 15.05213976884762
RS-30
1 32953U 08025A   24223.79843425  .00000025  00000-0  10850-3 0  9996
2 32953  82.5000  55.5102 0019356 348.5021  11.5614 12.43144922735919
PRISM
1 33493U 09002B   24223.59594854  .00045563  00000-0  19494-2 0  9997
2 33493  98.2001 276.0228 0011609  68.0857 292.1610 15.22611330847310
NOAA-19
1 33591U 09005A   24223.82347412  .00000569  00000-0  32883-3 0  9996
2 33591  99.0433 280.1914 0014634 135.7977 224.4367 14.13071407799341
SRMSAT
1 37841U 11058D   24223.22347881  .00000788  00000-0  28612-3 0  9991
2 37841  19.9704 189.9466 0011644 329.4552 151.0476 14.11159595662205
RS-40
1 38735U 12041C   24223.52535896  .00000028  00000-0  13309-3 0  9999
2 38735  82.4778 136.0160 0018396  98.4780 261.8385 12.42612916545926
ZACUBE-1
1 39417U 13066B   24223.86604079  .00014199  00000-0  14407-2 0  9995
2 39417  97.7368 178.6418 0049017 341.8729  18.0739 14.90068257579726
Delfi-N3xt
1 39428U 13066N   24223.33526105  .00011665  00000-0  14535-2 0  9999
2 39428  97.8338 140.2703 0096936 273.1027  85.9097 14.79294093574099
GOMX-1
1 39430U 13066Q   24223.85147922  .00007150  00000-0  11722-2 0  9994
2 39430  97.7245  94.9181 0140816  79.1276 282.5738 14.64557543571045
LO-74
1 39440U 13066AA  24223.40084711  .00009384  00000-0  10840-2 0  9993
2 39440  97.8141 165.9251 0071097  96.7364 264.1948 14.83968318576373
AO-73
1 39444U 13066AE  24223.84982804  .00017771  00000-0  16695-2 0  9998
2 39444  97.7229 181.8982 0045387 321.5160  38.2826 14.93200438578850
SPROUT
1 39770U 14029E   24223.82148181  .04509954  43038-1  54842-2 0  9998
2 39770  97.9847  23.7422 0019267 294.8930  65.0350 16.11855434556195
DTUSAT-2
1 40030U 14033W   24223.42509640  .00013526  00000-0  11080-2 0  9990
2 40030  98.0114 177.3396 0008167 357.0659   3.0514 14.99388942550825
EO-80
1 40032U 14033Y   24223.85915667  .00016253  00000-0  13276-2 0  9998
2 40032  98.0073 177.7971 0008976 335.0460  25.0327 14.99446985551388
XW-2C
1 40906U 15049H   24223.80428692  .00061166  00000-0  12167-2 0  9999
2 40906  97.4762 242.1821 0010144 108.4029 251.8325 15.46681943492907
XW-2D
1 40907U 15049J   24223.84068955  .00109449  00000-0  15053-2 0  9990
2 40907  97.4691 245.4215 0008649 103.7734 256.4484 15.56864636493181
LILACSAT-2
1 40908U 15049K   24223.84737759  .00020073  00000-0  74254-3 0  9990
2 40908  97.5246 232.9970 0013333 150.2531 209.9469 15.27642915491834
XW-2B
1 40911U 15049N   24223.83402420  .00102783  00000-0  14719-2 0  9995
2 40911  97.4667 245.4158 0008730 106.5841 253.6372 15.55791639493047
IO-86
1 40931U 15052B   24223.74146045  .00002108  00000-0  19743-3 0  9992
2 40931   6.0013 322.8859 0012293 137.3818 222.7265 14.77986161479651
ChubuSat-2
1 41338U 16012B   24223.59961760  .00011505  00000-0  70136-3 0  9997
2 41338  31.0020  40.4045 0011402  60.0496 300.1272 15.09084063465823
ChubuSat-3
1 41339U 16012C   24223.82977212  .00011502  00000-0  71395-3 0  9998
2 41339  31.0085  37.7638 0011337  66.7999 293.3832 15.08429776465839
Horyu-4
1 41340U 16012D   24223.61095092  .00024253  00000-0  11484-2 0  9993
2 41340  31.0033 340.4801 0009416 160.1875 199.9132 15.18141813466421
Lapan A3
1 41603U 16040E   24223.81621875  .00007206  00000-0  28444-3 0  9996
2 41603  97.1424 235.0788 0009894 266.5500  93.4607 15.25777839451553
Pratham
1 41783U 16059A   24223.56694000  .00002432  00000-0  45833-3 0  9994
2 41783  97.8356 240.3539 0031795 205.5717 154.3916 14.65072162420505
CAS-2T
1 41847U 16066G   24223.79967890  .00003034  00000-0  44798-3 0  9996
2 41847  98.4570 294.6920 0353178  13.0762 347.9297 14.41574125407362
CAS-4B
1 42759U 17034B   24223.64847465  .00030204  00000-0  10056-2 0  9992
2 42759  43.0160 278.2675 0012461 347.2884  12.7653 15.30513497395740
CAS-4A
1 42761U 17034D   24223.64571995  .00030044  00000-0  99702-3 0  9995
2 42761  43.0198 276.5962 0011433 358.4656   1.6160 15.30632368395753
Aalto 1
1 42775U 17036L   24223.63144487  .00408417  00000-0  14761-2 0  9997
2 42775  97.0919 254.5689 0002144 173.2016 186.9285 15.87630595397683
D-SAT
1 42794U 17036AF  24223.52457708  .00014419  00000-0  98339-3 0  9998
2 42794  97.4811 203.4554 0105523 324.7877  34.6406 15.01824517388876
TechnoSat
1 42829U 17042E   24223.79714660  .00008709  00000-0  75702-3 0  9990
2 42829  97.3883  41.8299 0010823 247.5808 112.4269 14.97163709385341
AO-91
1 43017U 17073E   24223.57716579  .00017041  00000-0  10235-2 0  9999
2 43017  97.5690  97.1633 0208431 111.5863 250.7708 14.94508861363787
TianYi 2
1 43155U 18008A   24222.69484174  .00598516  00000-0  22767-2 0  9990
2 43155  97.2209 278.5670 0008900 223.7723 136.2844 15.86093959363305
TianYi 6
1 43158U 18008D   24223.69814551  .00133467  00000-0  18682-2 0  9991
2 43158  97.2519 272.7661 0006402 221.6999 138.3769 15.56323554362925
S-Net D
1 43186U 18014G   24223.30912988  .00008991  00000-0  63138-3 0  9990
2 43186  97.5838 124.2101 0010641 170.3252 189.8181 15.05316476356645
S-Net B
1 43187U 18014H   24223.31166954  .00008959  00000-0  62919-3 0  9996
2 43187  97.5847 124.1663 0011633 166.3022 193.8523 15.05308187356645
S-Net A
1 43188U 18014J   24223.31023192  .00009005  00000-0  63226-3 0  9998
2 43188  97.5850 124.2820 0011500 167.1722 192.9799 15.05317893356644
S-Net C
1 43189U 18014K   24223.31374752  .00009087  00000-0  63776-3 0  9990
2 43189  97.5870 124.2439 0013479 161.4762 198.6958 15.05308941355194
Ten-Koh
1 43677U 18084G   24223.44328093  .00007472  00000-0  66113-3 0  9994
2 43677  98.0694  18.6032 0013800 192.4245 167.6637 14.96526552314834
PO-101
1 43678U 18084H   24223.87385978  .00005167  00000-0  47039-3 0  9992
2 43678  98.0792  23.4916 0008331 201.5824 158.5045 14.95612367315097
QO-100
1 43700U 18090A   24223.32707899  .00000152  00000-0  00000-0 0  9998
2 43700   0.0163 112.3203 0002319  56.7247 293.7911  1.00270475 20903
MinXSS-2
1 43758U 18099A   24223.11814092  .00023417  00000-0  14162-2 0  9996
2 43758  97.5499 284.6907 0017494 131.8896 228.3829 15.10518035310927
AO-95
1 43770U 18099N   24223.57683856  .00017385  00000-0  11630-2 0  9996
2 43770  97.5409 280.2881 0013971 172.4630 187.6810 15.06926578310756
RANGE-B
1 43772U 18099Q   24223.10753096  .00026919  00000-0  15821-2 0  9990
2 43772  97.5201 283.5123 0006325  89.6669 270.5286 15.11637380310866
RANGE-A
1 43773U 18099R   24223.57419209  .00010917  00000-0  81172-3 0  9991
2 43773  97.4944 275.0737 0013536 145.2299 214.9814 15.03078730310607
MOVE-II
1 43780U 18099Y   24223.11104737  .00042134  00000-0  20294-2 0  9999
2 43780  97.5171 285.6855 0007449 147.4416 212.7278 15.18589362311107
SNUSat 2
1 43782U 18099AA  24223.09269187  .00015956  00000-0  10952-2 0  9991
2 43782  97.5099 278.6702 0015971 117.4863 242.7989 15.05963816310683
